Nebraska City, NE

12:21 AM CDT on June 28, 2017 (GMT -0500)
Nebraska City Municipal

Weather History for KAFK - December, 2012

Change the Weather History Date:

Friday, December 7, 2012

  Actual Average (KSDA) Record (KSDA)
Temperature  
Mean Temperature 39 °F -  
Max Temperature 47 °F 38 °F 60 °F (1984)
Min Temperature 31 °F 20 °F -4 °F (1950)
Degree Days  
Heating Degree Days 26    
Moisture  
Dew Point 29 °F    
Average Humidity 66    
Maximum Humidity 91    
Minimum Humidity 43    
Precipitation  
Precipitation 0.00 in - - ()
Sea Level Pressure  
Sea Level Pressure 29.92 in    
Wind  
Wind Speed 4 mph (NNE)    
Max Wind Speed 13 mph    
Max Gust Speed -    
Visibility 10 miles    
Events Rain    
Averages and records for this station are not official NWS values.
T = Trace of Precipitation, MM = Missing Value Source: NWS Daily Summary

Daily Weather History Graph

Daily Weather History Graph

Search for Another Location

Airport or City:

Trip Planner

Search our weather history database for the weather conditions in past years. The results will help you decide how hot, cold, wet, or windy it might be!

Date:

Astronomy

Dec. 07, 2012 Rise Set
Actual Time 7:34 AM CST 4:56 PM CST
Civil Twilight 7:03 AM CST 5:26 PM CST
Nautical Twilight 6:29 AM CST 6:01 PM CST
Astronomical Twilight 5:56 AM CST 6:34 PM CST
Moon 12:52 AM CST (12/7) 12:55 PM CST (12/7)
Length of Visible Light 10h 23m
Length of Day
9h 22m
Last Quarter, 38% of the Moon is Illuminated
Dec 7
Last Quarter
Dec 13
New
Dec 19
First Quarter
Dec 28
Full
Jan 4
Last Quarter

Hourly Weather History & Observations

Time (CST) Temp. Windchill Dew Point Humidity Pressure Visibility Wind Dir Wind Speed Gust Speed Precip Events Conditions
12:15 AM 42.8 °F - 32.0 °F 66% 29.97 in 10.0 mi Calm Calm - N/A   Overcast
12:35 AM 42.4 °F 37.5 °F 32.0 °F 67% 29.96 in 10.0 mi North 8.1 mph - N/A   Overcast
12:55 AM 41.9 °F 36.9 °F 31.3 °F 66% 29.96 in 10.0 mi North 8.1 mph - N/A   Overcast
1:15 AM 42.1 °F 36.1 °F 31.1 °F 65% 29.96 in 10.0 mi North 10.4 mph - N/A   Overcast
1:35 AM 42.1 °F 36.1 °F 30.9 °F 65% 29.95 in 10.0 mi North 10.4 mph - N/A   Overcast
1:55 AM 41.9 °F 35.0 °F 30.6 °F 64% 29.95 in 10.0 mi NNE 12.7 mph - N/A   Overcast
2:15 AM 41.5 °F 34.6 °F 30.6 °F 65% 29.95 in 10.0 mi NNE 12.7 mph - N/A   Overcast
2:35 AM 41.0 °F 34.3 °F 30.6 °F 66% 29.96 in 10.0 mi NNE 11.5 mph - N/A   Overcast
2:55 AM 40.6 °F 34.8 °F 30.2 °F 66% 29.96 in 10.0 mi NNE 9.2 mph - N/A   Overcast
3:15 AM 38.8 °F 33.2 °F 29.8 °F 70% 29.96 in 10.0 mi NNE 8.1 mph - N/A   Mostly Cloudy
3:35 AM 37.8 °F - 30.0 °F 74% 29.95 in 10.0 mi Calm Calm - N/A   Mostly Cloudy
3:55 AM 36.9 °F - 29.7 °F 75% 29.95 in 10.0 mi Calm Calm - N/A   Scattered Clouds
4:15 AM 36.5 °F - 29.5 °F 76% 29.95 in 10.0 mi Calm Calm - N/A   Mostly Cloudy
4:35 AM 36.5 °F - 29.7 °F 76% 29.94 in 10.0 mi Calm Calm - N/A   Overcast
4:55 AM 36.7 °F - 29.7 °F 76% 29.94 in 10.0 mi Calm Calm - N/A   Overcast
5:15 AM 35.6 °F - 29.3 °F 78% 29.94 in 10.0 mi Calm Calm - N/A   Mostly Cloudy
5:35 AM 34.9 °F - 28.9 °F 79% 29.94 in 10.0 mi Calm Calm - N/A   Scattered Clouds
5:55 AM 32.9 °F 26.7 °F 28.4 °F 84% 29.94 in 10.0 mi North 6.9 mph - N/A   Clear
6:15 AM 32.9 °F - 28.4 °F 84% 29.94 in 10.0 mi Calm Calm - N/A   Clear
6:35 AM 32.9 °F - 28.8 °F 85% 29.94 in 10.0 mi Calm Calm - N/A   Clear
6:55 AM 32.4 °F - 28.4 °F 85% 29.94 in 10.0 mi Calm Calm - N/A   Clear
7:15 AM 32.0 °F - 28.8 °F 88% 29.94 in 10.0 mi Calm Calm - N/A   Clear
7:35 AM 31.6 °F - 28.8 °F 89% 29.94 in 10.0 mi Calm Calm - N/A   Clear
7:55 AM 32.0 °F - 29.1 °F 89% 29.93 in 10.0 mi Calm Calm - N/A   Clear
8:15 AM 32.2 °F - 29.8 °F 91% 29.94 in 10.0 mi Calm Calm - N/A   Clear
8:35 AM 34.5 °F - 31.6 °F 89% 29.93 in 10.0 mi Calm Calm - N/A   Clear
8:55 AM 36.5 °F - 32.0 °F 84% 29.93 in 10.0 mi Calm Calm - N/A   Clear
9:15 AM 39.6 °F - 32.7 °F 76% 29.92 in 10.0 mi Calm Calm - N/A   Clear
9:35 AM 41.0 °F 35.2 °F 31.1 °F 68% 29.93 in 10.0 mi East 9.2 mph - N/A   Clear
9:55 AM 41.4 °F 36.8 °F 30.9 °F 66% 29.93 in 10.0 mi ENE 6.9 mph - N/A   Clear
10:15 AM 42.1 °F 37.1 °F 30.0 °F 62% 29.92 in 10.0 mi East 8.1 mph - N/A   Clear
10:35 AM 43.2 °F - 30.2 °F 60% 29.92 in 10.0 mi Calm Calm - N/A   Clear
10:55 AM 44.6 °F - 30.7 °F 58% 29.90 in 10.0 mi Calm Calm - N/A   Clear
11:15 AM 45.5 °F - 30.2 °F 55% 29.89 in 10.0 mi Calm Calm - N/A   Clear
11:35 AM 45.9 °F 41.7 °F 30.9 °F 56% 29.90 in 10.0 mi South 8.1 mph - N/A   Clear
11:55 AM 46.8 °F - 30.9 °F 54% 29.89 in 10.0 mi Calm Calm - N/A   Clear
12:15 PM 47.7 °F - 30.9 °F 52% 29.90 in 10.0 mi Calm Calm - N/A   Clear
12:35 PM 47.1 °F - 31.1 °F 54% 29.89 in 10.0 mi Calm Calm - N/A   Clear
12:55 PM 47.3 °F - 31.1 °F 53% 29.89 in 10.0 mi Calm Calm - N/A   Scattered Clouds
1:15 PM 47.7 °F - 31.6 °F 54% 29.88 in 10.0 mi Calm Calm - N/A   Mostly Cloudy
1:35 PM 47.1 °F - 31.3 °F 54% 29.89 in 10.0 mi Calm Calm - N/A   Mostly Cloudy
1:55 PM 46.4 °F - 31.1 °F 55% 29.89 in 10.0 mi Calm Calm - N/A   Overcast
2:15 PM 46.6 °F - 31.8 °F 56% 29.89 in 10.0 mi Calm Calm - N/A   Light Drizzle
2:35 PM 46.9 °F - 29.8 °F 51% 29.89 in 10.0 mi Calm Calm - N/A   Overcast
2:55 PM 47.3 °F - 27.5 °F 46% 29.88 in 10.0 mi North 3.5 mph - N/A   Overcast
3:15 PM 46.6 °F - 25.3 °F 43% 29.87 in 10.0 mi NNE 12.7 mph - N/A   Mostly Cloudy
3:35 PM 45.9 °F 41.2 °F 25.2 °F 44% 29.87 in 10.0 mi NNE 9.2 mph - N/A   Mostly Cloudy
3:55 PM 45.1 °F 39.9 °F 24.4 °F 44% 29.88 in 10.0 mi NNE 10.4 mph - N/A   Overcast
4:15 PM 44.6 °F 39.7 °F 24.3 °F 45% 29.90 in 10.0 mi North 9.2 mph - N/A   Overcast
4:35 PM 44.1 °F 39.5 °F 24.4 °F 46% 29.89 in 10.0 mi NNE 8.1 mph - N/A   Overcast
4:55 PM 43.7 °F - 25.2 °F 48% 29.89 in 10.0 mi Calm Calm - N/A   Overcast
5:15 PM 42.3 °F - 27.5 °F 56% 29.88 in 10.0 mi Calm Calm - N/A Rain Light Rain
5:35 PM 41.7 °F - 28.8 °F 60% 29.87 in 10.0 mi Calm Calm - N/A Rain Light Rain
5:55 PM 41.2 °F - 28.4 °F 60% 29.88 in 10.0 mi Calm Calm - N/A   Overcast
6:15 PM 41.0 °F - 28.4 °F 61% 29.89 in 10.0 mi Calm Calm - N/A   Overcast
6:35 PM 41.2 °F - 27.9 °F 59% 29.89 in 10.0 mi Calm Calm - N/A   Overcast
7:15 PM 40.3 °F - 26.6 °F 58% 29.90 in 10.0 mi Calm Calm - N/A   Mostly Cloudy
7:35 PM 37.8 °F - 25.5 °F 61% 29.92 in 10.0 mi Calm Calm - N/A   Scattered Clouds
8:35 PM 36.0 °F - 24.8 °F 64% 29.94 in 10.0 mi Calm Calm - N/A   Clear
8:55 PM 35.1 °F - 24.8 °F 66% 29.94 in 10.0 mi Calm Calm - N/A   Clear
9:15 PM 35.1 °F - 25.7 °F 69% 29.94 in 10.0 mi Calm Calm - N/A   Clear
9:35 PM 35.6 °F - 25.9 °F 68% 29.95 in 10.0 mi Calm Calm - N/A   Clear
9:55 PM 34.7 °F 28.1 °F 25.7 °F 70% 29.95 in 10.0 mi NNE 8.1 mph - N/A   Clear
10:15 PM 33.3 °F - 25.2 °F 72% 29.96 in 10.0 mi Calm Calm - N/A   Clear
10:35 PM 32.5 °F - 25.2 °F 74% 29.96 in 10.0 mi Calm Calm - N/A   Scattered Clouds
10:55 PM 33.6 °F - 26.2 °F 74% 29.96 in 10.0 mi Calm Calm - N/A   Scattered Clouds
11:15 PM 33.4 °F - 26.1 °F 74% 29.96 in 10.0 mi Calm Calm - N/A   Clear
11:35 PM 33.8 °F - 26.2 °F 74% 29.95 in 10.0 mi Calm Calm - N/A   Scattered Clouds
11:55 PM 33.8 °F - 26.6 °F 75% 29.96 in 10.0 mi Calm Calm - N/A   Clear